sat.trackr.live / text

‹ back to catalog

STARLINK-36850

NORAD 68119 · 2026-044U

PAYLOAD ACTIVE UNKNOWN

§ Identity

Operator
Country
US
Launch date
2026-03-08
Launch site
AFWTR
Launch vehicle
Mass (kg)
RCS (m²)

Purposes: comms

External: N2YO · Heavens-Above · Gunter

§ Orbital elements

Epoch: 2026-05-24T19:46:38.184384Z

Period
93.91 min
Inclination
97.2848°
Eccentricity
0.0002087
Mean motion
15.33450859 rev/d
Perigee alt
464.1 km
Apogee alt
467.0 km
Semi-major
6,843.7 km
B*
7.5949e-4
RAAN
105.5009°
Arg perigee
88.3501°
Mean anomaly
271.7981°
Rev number
1,325

§ Raw data

STARLINK-368501 68119U 26044U   26144.82405306  .00024529  00000+0  75949-3 0  99942 68119  97.2848 105.5009 0002087  88.3501 271.7981 15.33450859 13256

JSON: /api/v1/satellites/68119 · /tle

For live sub-satellite position, see the globe view (requires WebGL).

§ Visibility from observer

Set your observer location to see the next 7 days of passes ≥ 10°. The values pass through the URL so the page stays shareable.

No JS? Fill the form by hand. The geolocation button needs JavaScript.